Location: Gleizolles
(44.4833°N, 6.7667°E)
Time: 21:09:10
(UTC+00:00)

SPOT 5 - Pass Details

Date: 09 April 2020
Orbit: 624 x 814 km, 98.3° (Epoch: 05 June)

Event Time Altitude Azimuth Distance (km) Brightness Sun altitude
Exits shadow 20:31:35 28° 47° (NE) 1,170 3.9 -23.3°
Drops below altitude 10° 20:34:36 10° 7° (N) 2,007 5.6 -23.8°
Sets 20:36:58 0° 357° (N) 2,925 6.7 -24.1°
